Time,TemperatureF,DewpointF,PressureIn,WindDirection,WindDirectionDegrees,WindSpeedMPH,WindSpeedGustMPH,Humidity,HourlyPrecipIn,Conditions,Clouds,dailyrainin,SoftwareType,DateUTC
2013-11-16 00:00:00,44.6,22.4,30.11,SW,226,0.0,0.0,41,0.00,,,-99.99,VWS V12.06,2013-11-16 05:00:00,
2013-11-16 00:15:00,44.8,22.5,30.11,SW,226,0.0,0.0,41,0.00,,,-99.99,VWS V12.06,2013-11-16 05:15:00,
2013-11-16 00:30:00,44.6,22.4,30.12,SW,227,0.0,1.0,41,0.00,,,-99.99,VWS V12.06,2013-11-16 05:30:00,
2013-11-16 00:45:00,44.3,22.7,30.12,SW,227,0.0,0.0,42,0.00,,,-99.99,VWS V12.06,2013-11-16 05:45:00,
2013-11-16 01:00:00,44.3,22.7,30.12,SW,227,0.0,0.0,42,0.00,,,-99.99,VWS V12.06,2013-11-16 06:00:00,
2013-11-16 01:15:00,44.2,22.6,30.12,SW,229,0.0,2.0,42,0.00,,,-99.99,VWS V12.06,2013-11-16 06:15:00,
2013-11-16 01:30:00,44.1,22.5,30.11,West,270,0.0,0.0,42,0.00,,,-99.99,VWS V12.06,2013-11-16 06:30:00,
2013-11-16 01:45:00,44.1,23.0,30.12,West,270,0.0,0.0,43,0.00,,,-99.99,VWS V12.06,2013-11-16 06:45:00,
2013-11-16 02:00:00,43.5,22.0,30.12,West,270,0.0,0.0,42,0.00,,,-99.99,VWS V12.06,2013-11-16 07:00:00,
2013-11-16 02:15:00,43.9,21.7,30.12,West,270,0.0,0.0,41,0.00,,,-99.99,VWS V12.06,2013-11-16 07:15:00,
2013-11-16 02:30:00,43.9,21.7,30.13,West,270,0.0,0.0,41,0.00,,,-99.99,VWS V12.06,2013-11-16 07:30:00,
2013-11-16 02:45:00,44.1,21.3,30.12,West,270,0.0,0.0,40,0.00,,,-99.99,VWS V12.06,2013-11-16 07:45:00,
2013-11-16 03:00:00,44.1,21.9,30.12,West,270,0.0,0.0,41,0.00,,,-99.99,VWS V12.06,2013-11-16 08:00:00,
2013-11-16 03:15:00,44.2,21.4,30.13,NW,315,0.0,2.0,40,0.00,,,-99.99,VWS V12.06,2013-11-16 08:15:00,
2013-11-16 03:30:00,44.6,21.2,30.14,West,278,0.0,1.0,39,0.00,,,-99.99,VWS V12.06,2013-11-16 08:30:00,
2013-11-16 03:45:00,44.6,21.2,30.15,NNW,329,0.0,1.0,39,0.00,,,-99.99,VWS V12.06,2013-11-16 08:45:00,
2013-11-16 04:00:00,44.8,21.4,30.15,WNW,292,0.0,3.0,39,0.00,,,-99.99,VWS V12.06,2013-11-16 09:00:00,
2013-11-16 04:15:00,44.6,21.8,30.15,WNW,292,0.0,0.0,40,0.00,,,-99.99,VWS V12.06,2013-11-16 09:15:00,
2013-11-16 04:30:00,44.3,22.7,30.15,WNW,292,0.0,0.0,42,0.00,,,-99.99,VWS V12.06,2013-11-16 09:30:00,
2013-11-16 04:45:00,43.8,21.6,30.16,WNW,292,0.0,0.0,41,0.00,,,-99.99,VWS V12.06,2013-11-16 09:45:00,
2013-11-16 05:00:00,44.3,20.9,30.17,WNW,292,0.0,0.0,39,0.00,,,-99.99,VWS V12.06,2013-11-16 10:00:00,
2013-11-16 05:15:00,44.5,21.7,30.16,WNW,292,0.0,0.0,40,0.00,,,-99.99,VWS V12.06,2013-11-16 10:15:00,
2013-11-16 05:30:00,44.5,21.1,30.16,WNW,292,0.0,0.0,39,0.00,,,-99.99,VWS V12.06,2013-11-16 10:30:00,
2013-11-16 05:45:00,44.8,21.4,30.16,WNW,292,0.0,0.0,39,0.00,,,-99.99,VWS V12.06,2013-11-16 10:45:00,
2013-11-16 06:00:00,44.8,21.4,30.17,WNW,292,0.0,1.0,39,0.00,,,-99.99,VWS V12.06,2013-11-16 11:00:00,
2013-11-16 06:15:00,44.8,21.4,30.17,WNW,292,0.0,0.0,39,0.00,,,-99.99,VWS V12.06,2013-11-16 11:15:00,
2013-11-16 06:30:00,44.8,20.8,30.18,WNW,292,0.0,0.0,38,0.00,,,-99.99,VWS V12.06,2013-11-16 11:30:00,
2013-11-16 06:45:00,44.8,21.4,30.18,WNW,292,0.0,0.0,39,0.00,,,-99.99,VWS V12.06,2013-11-16 11:45:00,
2013-11-16 07:00:00,44.6,20.6,30.18,WNW,292,0.0,0.0,38,0.00,,,-99.99,VWS V12.06,2013-11-16 12:00:00,
2013-11-16 07:15:00,44.5,21.1,30.19,WNW,292,0.0,0.0,39,0.00,,,-99.99,VWS V12.06,2013-11-16 12:15:00,
2013-11-16 07:30:00,44.3,22.7,30.20,WNW,292,0.0,0.0,42,0.00,,,-99.99,VWS V12.06,2013-11-16 12:30:00,
2013-11-16 07:45:00,44.8,22.5,30.20,WNW,292,0.0,1.0,41,0.00,,,-99.99,VWS V12.06,2013-11-16 12:45:00,
2013-11-16 08:00:00,44.6,23.5,30.22,WNW,292,0.0,0.0,43,0.00,,,-99.99,VWS V12.06,2013-11-16 13:00:00,
2013-11-16 08:15:00,44.5,23.4,30.22,WNW,292,0.0,0.0,43,0.00,,,-99.99,VWS V12.06,2013-11-16 13:15:00,
2013-11-16 08:30:00,44.6,23.5,30.23,WNW,292,0.0,0.0,43,0.00,,,-99.99,VWS V12.06,2013-11-16 13:30:00,
2013-11-16 08:45:00,44.9,22.1,30.23,WNW,292,0.0,0.0,40,0.00,,,-99.99,VWS V12.06,2013-11-16 13:45:00,
2013-11-16 09:00:00,47.7,19.3,30.23,WNW,292,0.0,0.0,32,0.00,,,-99.99,VWS V12.06,2013-11-16 14:00:00,
2013-11-16 09:15:00,49.6,19.5,30.23,WNW,292,0.0,1.0,30,0.00,,,-99.99,VWS V12.06,2013-11-16 14:15:00,
2013-11-16 09:30:00,50.8,18.9,30.23,WNW,292,0.0,1.0,28,0.00,,,-99.99,VWS V12.06,2013-11-16 14:30:00,
2013-11-16 09:45:00,50.5,21.0,30.23,WNW,292,0.0,0.0,31,0.00,,,-99.99,VWS V12.06,2013-11-16 14:45:00,
2013-11-16 10:00:00,51.4,19.4,30.23,WNW,292,0.0,1.0,28,0.00,,,-99.99,VWS V12.06,2013-11-16 15:00:00,
2013-11-16 10:15:00,52.5,21.2,30.23,WNW,294,0.0,3.0,29,0.00,,,-99.99,VWS V12.06,2013-11-16 15:15:00,
2013-11-16 10:30:00,53.3,21.0,30.23,WSW,247,0.0,2.0,28,0.00,,,-99.99,VWS V12.06,2013-11-16 15:30:00,
2013-11-16 10:45:00,53.8,21.5,30.23,NNW,336,3.0,3.0,28,0.00,,,-99.99,VWS V12.06,2013-11-16 15:45:00,
2013-11-16 11:00:00,54.1,21.7,30.22,NW,320,0.0,1.0,28,0.00,,,-99.99,VWS V12.06,2013-11-16 16:00:00,
2013-11-16 11:15:00,55.0,20.8,30.22,NW,323,0.0,6.0,26,0.00,,,-99.99,VWS V12.06,2013-11-16 16:15:00,
2013-11-16 11:30:00,54.8,21.5,30.22,NNW,344,1.0,8.0,27,0.00,,,-99.99,VWS V12.06,2013-11-16 16:30:00,
2013-11-16 11:45:00,55.6,23.0,30.22,NNE,16,1.0,2.0,28,0.00,,,-99.99,VWS V12.06,2013-11-16 16:45:00,
2013-11-16 12:00:00,56.0,23.4,30.22,North,356,0.0,4.0,28,0.00,,,-99.99,VWS V12.06,2013-11-16 17:00:00,
2013-11-16 12:15:00,56.3,24.5,30.21,North,356,1.0,1.0,29,0.00,,,-99.99,VWS V12.06,2013-11-16 17:15:00,
2013-11-16 12:30:00,55.7,24.0,30.20,North,356,0.0,1.0,29,0.00,,,-99.99,VWS V12.06,2013-11-16 17:30:00,
2013-11-16 12:45:00,56.0,24.2,30.20,West,261,1.0,1.0,29,0.00,,,-99.99,VWS V12.06,2013-11-16 17:45:00,
2013-11-16 13:00:00,55.7,24.0,30.20,NW,304,0.0,3.0,29,0.00,,,-99.99,VWS V12.06,2013-11-16 18:00:00,
2013-11-16 13:15:00,56.2,25.2,30.20,SE,138,1.0,3.0,30,0.00,,,-99.99,VWS V12.06,2013-11-16 18:15:00,
2013-11-16 13:30:00,56.6,25.5,30.19,NNW,336,3.0,3.0,30,0.00,,,-99.99,VWS V12.06,2013-11-16 18:30:00,
2013-11-16 13:45:00,57.0,25.1,30.20,North,354,0.0,1.0,29,0.00,,,-99.99,VWS V12.06,2013-11-16 18:45:00,
2013-11-16 14:00:00,57.5,24.7,30.19,NNW,346,0.0,2.0,28,0.00,,,-99.99,VWS V12.06,2013-11-16 19:00:00,
2013-11-16 14:15:00,57.5,26.3,30.20,North,350,0.0,0.0,30,0.00,,,-99.99,VWS V12.06,2013-11-16 19:15:00,
2013-11-16 14:30:00,57.0,25.9,30.20,NNW,346,2.0,3.0,30,0.00,,,-99.99,VWS V12.06,2013-11-16 19:30:00,
2013-11-16 14:45:00,56.6,27.1,30.20,NNW,344,0.0,0.0,32,0.00,,,-99.99,VWS V12.06,2013-11-16 19:45:00,
2013-11-16 15:00:00,56.3,27.6,30.21,NNW,337,0.0,3.0,33,0.00,,,-99.99,VWS V12.06,2013-11-16 20:00:00,
2013-11-16 15:15:00,55.9,28.0,30.22,NNW,337,0.0,0.0,34,0.00,,,-99.99,VWS V12.06,2013-11-16 20:15:00,
2013-11-16 15:30:00,55.4,28.9,30.22,NNW,337,0.0,0.0,36,0.00,,,-99.99,VWS V12.06,2013-11-16 20:30:00,
2013-11-16 15:45:00,54.8,29.0,30.22,NNW,337,0.0,0.0,37,0.00,,,-99.99,VWS V12.06,2013-11-16 20:45:00,
2013-11-16 16:00:00,53.9,30.1,30.22,NNW,337,0.0,0.0,40,0.00,,,-99.99,VWS V12.06,2013-11-16 21:00:00,
2013-11-16 16:15:00,52.8,30.9,30.23,NNW,337,0.0,0.0,43,0.00,,,-99.99,VWS V12.06,2013-11-16 21:15:00,
2013-11-16 16:30:00,51.3,31.2,30.23,NNW,337,0.0,0.0,46,0.00,,,-99.99,VWS V12.06,2013-11-16 21:30:00,
2013-11-16 16:45:00,49.8,30.9,30.23,NNW,337,0.0,0.0,48,0.00,,,-99.99,VWS V12.06,2013-11-16 21:45:00,
2013-11-16 17:00:00,48.5,30.7,30.24,NNW,337,0.0,0.0,50,0.00,,,-99.99,VWS V12.06,2013-11-16 22:00:00,
2013-11-16 17:15:00,47.6,30.4,30.24,NNW,337,0.0,0.0,51,0.00,,,-99.99,VWS V12.06,2013-11-16 22:15:00,
2013-11-16 17:30:00,47.1,30.9,30.24,NNW,337,0.0,0.0,53,0.00,,,-99.99,VWS V12.06,2013-11-16 22:30:00,
2013-11-16 17:45:00,46.5,31.2,30.24,NNW,337,0.0,0.0,55,0.00,,,-99.99,VWS V12.06,2013-11-16 22:45:00,
2013-11-16 18:00:00,46.1,30.9,30.25,NNW,337,0.0,0.0,55,0.00,,,-99.99,VWS V12.06,2013-11-16 23:00:00,
2013-11-16 18:15:00,45.7,31.4,30.25,NNW,337,0.0,0.0,57,0.00,,,-99.99,VWS V12.06,2013-11-16 23:15:00,
2013-11-16 18:30:00,45.8,31.5,30.25,NNW,337,0.0,0.0,57,0.00,,,-99.99,VWS V12.06,2013-11-16 23:30:00,
2013-11-16 18:45:00,45.5,31.6,30.25,NNW,337,0.0,0.0,58,0.00,,,-99.99,VWS V12.06,2013-11-16 23:45:00,
2013-11-16 19:00:00,45.1,31.6,30.24,NNW,337,0.0,0.0,59,0.00,,,-99.99,VWS V12.06,2013-11-17 00:00:00,
2013-11-16 19:15:00,44.9,31.9,30.24,NNW,337,0.0,0.0,60,0.00,,,-99.99,VWS V12.06,2013-11-17 00:15:00,
2013-11-16 19:30:00,44.8,31.8,30.24,NNW,337,0.0,0.0,60,0.00,,,-99.99,VWS V12.06,2013-11-17 00:30:00,
2013-11-16 19:45:00,44.6,32.0,30.24,NNW,337,0.0,0.0,61,0.00,,,-99.99,VWS V12.06,2013-11-17 00:45:00,
2013-11-16 20:00:00,44.2,32.0,30.25,NNW,337,0.0,0.0,62,0.00,,,-99.99,VWS V12.06,2013-11-17 01:00:00,
2013-11-16 20:15:00,43.9,32.1,30.26,NNW,337,0.0,0.0,63,0.00,,,-99.99,VWS V12.06,2013-11-17 01:15:00,
2013-11-16 20:30:00,43.8,32.0,30.25,NNW,337,0.0,0.0,63,0.00,,,-99.99,VWS V12.06,2013-11-17 01:30:00,
2013-11-16 20:45:00,43.5,32.2,30.26,NNW,337,0.0,0.0,64,0.00,,,-99.99,VWS V12.06,2013-11-17 01:45:00,
2013-11-16 21:00:00,44.3,32.5,30.25,NNW,337,0.0,0.0,63,0.00,,,-99.99,VWS V12.06,2013-11-17 02:00:00,
2013-11-16 21:15:00,44.8,33.0,30.25,NNW,337,0.0,0.0,63,0.00,,,-99.99,VWS V12.06,2013-11-17 02:15:00,
2013-11-16 21:30:00,44.5,33.1,30.24,NNW,337,0.0,0.0,64,0.00,,,-99.99,VWS V12.06,2013-11-17 02:30:00,
2013-11-16 21:45:00,43.8,33.2,30.24,NNW,337,0.0,0.0,66,0.00,,,-99.99,VWS V12.06,2013-11-17 02:45:00,
2013-11-16 22:00:00,43.1,33.3,30.24,NNW,337,0.0,0.0,68,0.00,,,-99.99,VWS V12.06,2013-11-17 03:00:00,
2013-11-16 22:15:00,42.5,33.4,30.24,NNW,337,0.0,0.0,70,0.00,,,-99.99,VWS V12.06,2013-11-17 03:15:00,
2013-11-16 22:30:00,41.9,33.2,30.24,NNW,337,0.0,0.0,71,0.00,,,-99.99,VWS V12.06,2013-11-17 03:30:00,
2013-11-16 22:45:00,41.9,34.2,30.24,NNW,337,0.0,0.0,74,0.00,,,-99.99,VWS V12.06,2013-11-17 03:45:00,
2013-11-16 23:00:00,41.9,34.9,30.24,NNW,337,0.0,0.0,76,0.00,,,-99.99,VWS V12.06,2013-11-17 04:00:00,
2013-11-16 23:15:00,41.6,35.6,30.24,NNW,337,0.0,0.0,79,0.00,,,-99.99,VWS V12.06,2013-11-17 04:15:00,
2013-11-16 23:30:00,41.5,36.1,30.24,NNW,337,0.0,0.0,81,0.00,,,-99.99,VWS V12.06,2013-11-17 04:30:00,
2013-11-16 23:45:00,41.1,36.6,30.24,NNW,337,0.0,0.0,84,0.00,,,-99.99,VWS V12.06,2013-11-17 04:45:00,